Wind_Speed
110 109 107 101 94 90 87 87 86 84 83 82 81 80 78 77 76 75 75 75 74 72 69 67 65 62 61 60 61 59 56 53 52 52 52 52 53 53 53 52 51 49 48 44 41 41 40 39 38 35 35 35 35 34 33 34 35 35 36 38 38 37 40 42 43 45 46 46 46 46 47 47 48 48 48 48 48 48 48 48 47 48 49 49 50 50
113 111 105 97 92 91 91 91 90 88 86 85 85 84 83 81 79 78 78 78 77 75 71 69 67 65 63 63 63 61 57 54 54 54 54 54 53 53 54 55 54 53 51 48 45 45 43 43 41 39 38 38 37 35 35 35 35 35 37 37 36 36 38 40 40 42 44 44 44 45 47 48 48 49 49 48 48 48 48 48 48 49 50 50 50 51
115 111 101 94 93 93 94 94 93 91 89 88 88 88 86 83 81 80 80 79 79 77 75 73 71 67 66 65 65 63 59 57 57 56 55 54 53 54 56 57 56 55 54 52 50 48 46 45 44 43 42 41 40 38 37 38 37 37 37 37 35 36 38 39 39 41 41 41 41 43 45 45 45 46 46 46 46 46 46 46 47 48 49 49 49 49
114 106 97 95 96 95 96 96 95 93 91 90 90 89 87 84 83 81 81 82 82 81 79 77 74 70 67 66 65 65 62 60 59 57 56 55 53 55 57 57 57 57 57 55 54 51 49 48 47 46 45 44 44 43 42 40 39 38 39 38 37 37 38 39 39 40 39 40 41 42 43 43 43 43 42 42 43 43 44 44 45 46 46 47 47 47
113 104 100 100 99 97 98 98 97 96 94 92 91 89 87 85 85 84 84 85 86 86 83 81 78 72 69 67 65 67 66 62 60 58 57 56 55 56 58 58 59 59 58 57 56 55 53 51 50 50 49 48 48 48 46 44 42 41 41 41 40 39 40 40 39 39 39 40 41 42 42 42 41 41 41 42 41 41 42 43 43 44 44 45 45 45
115 110 107 105 103 102 103 102 100 98 96 95 93 91 90 89 89 88 88 88 90 89 86 84 81 74 70 69 67 68 67 63 61 60 58 58 58 58 59 60 61 60 59 59 58 57 56 55 54 53 52 51 51 51 50 48 46 45 45 44 42 41 42 42 42 40 40 41 42 42 42 42 42 42 43 42 41 40 42 43 43 43 43 43 44 44
119 116 112 110 108 108 107 105 102 100 99 98 95 93 94 93 93 93 92 93 93 92 89 88 85 77 72 70 67 68 68 64 62 61 59 61 61 61 61 62 62 61 60 60 60 59 58 58 58 57 56 55 54 54 53 51 51 50 49 47 45 44 44 45 44 42 42 43 43 43 44 44 44 45 44 43 41 41 43 44 44 44 44 44 44 45
123 119 116 114 113 111 109 105 102 102 102 100 97 96 97 96 96 96 97 98 97 95 92 90 87 80 73 70 69 68 68 65 64 62 62 63 63 63 63 63 64 63 62 61 61 61 61 60 60 60 59 58 58 57 55 54 54 53 52 50 49 48 47 47 46 45 45 45 45 45 45 47 47 47 46 44 43 44 46 46 46 46 46 46 46 47
124 121 119 117 115 112 110 106 104 104 105 103 100 101 102 102 102 101 102 103 101 99 95 91 88 83 74 69 71 71 68 66 65 64 64 65 66 65 65 65 66 66 65 64 63 63 63 63 62 61 61 60 60 60 58 57 56 55 54 53 52 51 50 49 48 48 47 47 48 48 48 49 49 49 49 47 46 47 48 48 48 48 48 48 48 50
127 125 123 121 119 117 114 111 109 110 110 108 106 106 107 108 107 107 108 107 106 103 96 89 88 85 76 70 73 73 69 67 66 67 67 67 68 68 68 68 68 68 67 67 66 66 66 65 63 62 62 62 62 62 60 59 58 57 56 55 54 54 53 52 51 50 50 50 50 51 51 52 52 51 51 49 49 50 51 51 51 50 50 50 51 52
131 129 128 126 124 122 119 117 115 115 116 116 113 111 111 111 111 110 110 109 109 104 93 87 88 87 79 72 72 73 71 68 68 68 69 69 71 72 72 71 71 70 70 69 69 69 68 67 66 64 63 64 64 63 62 61 61 59 58 58 57 57 56 55 54 53 53 53 53 54 54 54 54 53 52 52 53 53 53 53 53 53 53 53 54 54
133 131 130 129 127 124 122 121 119 120 121 120 117 114 113 113 112 112 111 111 110 101 89 87 88 89 84 73 71 73 72 71 70 70 71 72 74 75 75 74 73 73 72 72 72 72 71 69 68 66 65 65 65 64 63 63 62 61 60 60 60 59 58 57 56 55 55 55 56 56 56 56 57 56 55 55 56 56 56 56 56 55 55 56 56 57
136 133 132 130 128 127 125 125 124 123 123 121 118 115 114 114 114 113 111 110 107 97 90 90 91 93 87 75 71 73 72 73 73 73 74 75 76 77 78 77 76 75 75 74 74 73 73 72 70 68 67 67 66 66 65 64 63 62 62 62 62 62 60 59 58 57 57 57 57 58 57 58 58 58 58 58 58 58 58 58 58 58 58 58 59 59
137 135 133 132 130 128 127 126 125 124 122 120 118 115 114 114 114 113 110 109 106 99 94 94 95 98 90 77 73 73 74 76 76 76 78 78 79 80 81 81 79 78 77 76 75 75 75 75 74 72 70 69 69 68 67 66 65 65 64 64 64 64 63 61 60 60 59 59 59 59 59 59 60 60 60 60 61 61 61 60 60 60 60 61 62 62
138 136 134 132 129 127 125 124 123 122 122 121 119 118 118 117 116 114 112 112 109 104 101 100 103 103 91 78 76 76 77 78 79 80 81 82 83 83 83 82 81 81 80 78 77 76 77 77 76 75 73 72 71 70 70 69 68 68 67 67 66 67 67 65 63 63 62 62 61 61 61 61 62 62 62 62 63 64 63 63 62 63 63 64 65 65
140 138 135 133 130 128 126 124 124 124 124 124 123 123 122 119 118 118 117 116 114 111 109 106 107 103 91 82 81 80 80 80 81 83 83 84 85 85 84 84 83 83 82 82 80 79 79 79 78 78 77 75 74 73 72 72 71 71 70 70 70 71 71 68 66 65 65 64 64 63 64 64 63 63 63 64 65 65 65 64 64 64 66 66 67 68
141 140 138 135 133 130 128 128 127 127 127 126 125 124 121 118 119 121 120 118 117 116 112 107 106 101 92 87 85 83 82 82 83 84 85 86 87 86 86 85 86 86 85 84 83 82 82 82 80 80 79 78 77 76 76 75 74 73 73 73 74 74 74 72 70 68 68 68 67 66 66 66 65 65 65 65 66 66 66 66 66 67 68 68 69 70
142 141 140 138 136 133 131 130 130 129 128 128 126 124 122 122 123 124 122 120 120 119 113 107 105 101 95 90 86 86 86 85 86 87 88 88 88 87 87 87 89 89 88 87 87 86 86 85 84 83 81 80 80 79 79 79 78 77 77 77 77 77 77 75 73 72 71 71 70 70 69 68 68 68 67 67 68 67 67 67 68 69 69 70 71 71
144 143 143 142 140 138 136 134 133 132 131 130 128 126 126 128 127 125 124 123 121 119 114 108 105 103 98 92 89 90 91 90 91 91 90 90 90 89 90 90 91 91 91 91 90 90 90 88 87 86 84 83 83 83 83 82 82 81 81 80 79 79 79 78 76 75 75 74 73 73 72 72 72 71 70 70 69 69 68 69 70 70 71 72 72 72
144 144 144 144 143 141 140 138 136 134 132 132 131 130 130 130 128 126 125 124 123 121 116 111 108 106 100 94 93 94 95 96 96 94 92 92 91 92 92 93 94 94 94 94 93 93 93 92 91 90 88 87 86 86 86 86 85 85 84 83 82 82 82 81 80 79 78 77 77 76 76 75 75 74 73 72 72 71 71 72 72 73 73 74 74 74
146 145 144 144 144 143 142 140 137 134 133 133 132 132 131 130 129 127 126 126 126 123 119 115 111 107 101 97 99 99 99 100 100 97 97 96 94 95 95 95 97 97 97 96 96 96 96 95 95 94 92 90 89 89 89 89 89 88 87 86 85 85 85 84 84 83 82 80 80 79 79 78 77 76 76 75 75 75 75 75 76 76 76 76 76 77
149 147 145 144 144 144 142 140 138 137 136 135 134 133 132 131 131 131 130 129 128 126 123 120 117 111 105 102 103 104 103 103 103 102 101 100 99 99 99 98 98 98 98 99 99 99 99 98 98 97 96 94 93 92 91 92 91 91 90 89 88 88 87 87 86 85 84 83 83 82 82 81 80 80 80 79 79 78 78 79 79 79 79 79 80 80
149 148 147 146 145 144 143 141 139 138 138 138 137 136 135 134 134 133 132 131 130 129 128 126 123 116 109 108 108 108 108 107 106 105 105 104 102 102 102 101 100 99 99 100 101 102 102 102 101 101 100 99 97 96 95 94 94 93 92 91 90 90 90 89 89 88 88 87 87 86 85 85 84 83 83 82 82 82 82 83 82 82 82 82 83 83
151 150 149 148 148 147 146 144 142 140 139 139 139 138 137 136 135 134 133 133 133 133 132 131 129 120 113 111 112 112 112 111 109 107 106 106 106 105 104 103 102 101 102 102 103 104 105 105 104 104 103 103 102 101 99 98 97 96 94 93 93 93 92 92 92 91 91 90 90 89 88 88 87 86 86 86 85 86 86 86 86 86 85 85 86 86
152 152 152 151 150 150 150 148 146 144 142 140 138 138 137 138 137 137 137 137 137 137 136 135 132 123 116 115 115 114 114 113 112 110 109 109 110 109 108 105 104 104 105 105 106 106 107 107 106 105 105 105 105 104 103 102 101 99 98 96 95 95 95 94 94 94 94 93 93 92 92 91 90 89 89 89 89 89 89 89 88 88 88 88 88 88
153 153 153 152 151 151 151 149 147 146 144 142 140 138 138 139 140 140 140 140 139 139 138 136 133 127 122 119 118 116 116 116 116 115 114 113 113 112 111 109 107 107 109 109 108 109 109 109 108 107 107 107 106 106 106 106 105 103 102 100 99 98 98 97 97 97 96 96 95 95 95 94 94 93 92 92 92 91 91 91 91 91 90 90 90 90
156 156 156 154 153 152 151 149 147 147 147 146 144 143 142 141 142 141 141 141 141 140 140 138 136 133 128 124 122 120 120 120 120 120 119 118 117 115 114 112 111 112 112 113 112 111 112 112 111 110 109 109 108 108 109 108 108 107 106 105 104 103 101 100 100 99 98 98 98 98 98 97 96 96 95 95 94 94 94 93 93 93 92 92 92 92
155 157 157 156 155 153 152 151 150 149 149 149 148 147 147 146 146 145 144 142 142 141 140 140 139 137 132 129 126 124 123 123 123 123 123 122 120 119 117 116 116 116 117 116 115 114 114 114 113 112 112 112 111 111 111 111 110 110 109 109 108 107 105 104 103 102 101 100 100 100 100 99 99 98 97 97 97 97 96 96 95 95 95 95 95 95
153 154 154 155 155 154 153 153 152 151 151 151 151 150 149 149 149 149 147 146 144 143 142 140 139 137 133 131 130 129 128 126 126 125 125 125 124 122 121 120 119 120 121 120 118 116 116 116 116 115 114 114 114 114 114 114 113 112 112 111 110 109 108 107 106 105 104 104 103 103 103 102 101 100 100 100 100 100 99 99 98 98 98 98 98 99
152 152 152 152 153 153 154 154 154 153 152 153 153 153 152 151 151 151 150 149 148 147 145 142 140 137 133 131 132 133 132 131 129 128 127 127 126 125 124 123 123 123 123 122 120 119 118 118 119 119 118 118 118 118 117 117 116 115 114 113 112 111 110 109 109 108 108 108 108 107 106 105 104 103 103 103 103 103 102 102 102 102 102 102 102 102
148 149 150 150 151 151 151 153 154 154 154 154 154 155 155 154 154 153 152 150 150 148 146 145 143 140 136 134 134 135 135 133 130 129 129 129 129 129 128 127 126 126 125 124 123 121 121 121 122 122 122 121 121 120 119 118 118 118 117 116 115 113 112 111 111 111 111 111 111 111 110 109 107 106 106 106 106 106 105 106 106 106 106 106 106 105
143 144 146 148 150 149 149 149 151 152 154 155 155 156 156 155 155 154 153 151 150 149 148 147 145 143 141 140 139 138 136 133 131 131 131 132 132 132 132 131 131 130 129 127 126 124 124 124 124 125 125 125 124 122 121 120 120 120 119 119 118 117 116 115 115 114 114 114 114 114 113 112 111 109 109 109 109 109 109 109 109 109 109 108 108 107
140 142 144 146 147 148 148 148 150 152 154 155 154 154 154 153 153 152 152 152 152 152 151 150 147 145 144 144 143 141 138 137 136 136 135 134 134 134 134 134 133 133 132 131 130 128 128 127 127 127 127 127 126 125 124 123 123 123 122 122 121 121 120 119 119 118 118 117 117 117 117 116 114 113 112 113 113 112 112 112 112 111 111 110 109 108
138 140 143 145 146 147 147 149 152 155 156 154 152 149 149 149 150 150 151 152 153 153 153 152 150 148 147 146 145 142 141 141 140 139 138 138 138 138 137 137 136 135 134 133 132 132 131 130 130 129 129 130 129 128 127 127 126 126 125 125 124 123 123 123 123 123 122 122 121 121 120 119 118 117 117 117 117 116 116 116 116 116 115 114 113 112
133 135 139 142 144 145 146 148 152 155 155 153 150 147 147 148 148 149 149 149 150 151 152 151 150 149 148 147 146 144 144 145 144 143 141 140 141 141 141 140 139 138 137 136 136 135 134 132 131 131 132 132 133 132 132 131 130 129 128 128 127 126 126 126 127 127 126 126 125 124 124 122 121 121 120 120 120 120 120 120 120 120 120 119 117 116
128 130 132 135 138 141 143 146 149 150 150 149 147 146 147 147 147 148 147 146 146 147 148 149 149 148 148 147 145 144 144 146 147 145 144 144 144 144 143 142 142 142 141 140 140 139 137 136 134 134 134 134 135 135 135 134 134 133 132 131 130 129 128 129 129 129 129 129 128 128 127 126 125 124 123 123 123 123 122 122 123 123 123 122 121 120
124 127 129 131 133 135 138 140 144 146 146 144 143 143 143 145 146 147 147 146 145 146 147 148 147 146 146 146 145 143 143 145 145 145 146 147 147 146 145 145 145 145 144 143 142 142 141 140 138 137 137 137 137 136 136 136 136 136 136 135 134 133 132 131 132 132 132 132 132 131 131 130 129 128 127 126 126 126 125 125 125 125 125 124 124 123
119 122 125 128 130 132 134 137 140 142 142 140 139 138 139 141 144 147 149 148 147 146 147 147 146 146 145 145 145 145 145 145 145 144 145 147 147 147 146 147 147 147 146 145 145 145 145 144 143 142 141 140 140 139 138 138 137 137 138 137 137 136 135 134 134 133 133 134 134 134 134 133 132 131 131 130 129 129 129 128 128 128 128 127 127 126
113 116 119 123 126 129 131 134 136 137 135 134 133 134 137 139 142 146 149 148 145 144 145 146 147 146 146 146 146 147 148 147 145 145 145 146 146 145 145 146 145 144 143 143 144 144 145 146 146 146 145 144 143 143 142 141 140 139 139 139 139 139 138 138 137 136 136 135 135 135 135 135 135 134 133 132 131 130 130 130 130 130 130 129 129 128
107 109 112 115 119 121 125 128 130 131 129 127 128 130 133 137 140 145 146 144 141 141 143 146 148 148 148 148 148 149 149 148 147 146 146 147 146 145 145 145 144 142 142 141 141 141 142 143 144 144 144 145 144 144 144 143 142 142 141 142 141 141 140 140 139 139 138 137 137 137 137 137 136 136 135 134 133 132 131 131 130 130 130 129 129 128
101 103 105 108 111 114 117 120 123 124 123 122 124 126 130 134 137 140 140 138 138 139 142 145 147 148 148 149 149 149 149 148 147 147 147 147 146 145 145 145 144 143 143 142 141 141 141 142 142 142 142 142 142 142 142 141 141 140 141 141 141 141 141 141 141 140 139 139 139 138 138 138 137 137 137 136 135 134 133 132 132 131 130 129 128 128
96 97 99 102 104 106 109 112 115 115 114 115 118 122 126 129 131 132 133 134 136 138 141 143 145 146 147 146 147 147 146 146 146 147 147 147 146 146 146 145 145 144 144 143 142 142 141 142 142 141 141 141 140 140 140 140 139 138 138 138 138 138 138 138 138 138 138 137 137 138 138 137 137 137 137 137 137 136 134 134 133 133 132 131 129 128
93 95 96 97 98 100 102 105 106 103 100 102 109 114 119 122 125 127 130 133 135 136 138 138 140 142 143 144 145 145 145 146 146 146 146 146 146 145 145 145 145 144 144 144 143 142 141 141 141 141 141 140 140 140 139 138 138 138 138 137 137 136 135 135 134 133 133 132 132 132 133 133 133 133 133 134 135 135 135 134 134 133 132 131 130 128
94 94 93 91 92 94 97 97 96 92 91 95 102 107 111 115 118 122 125 128 131 132 133 133 135 137 139 140 142 143 144 145 145 145 145 145 145 144 144 144 144 144 144 143 143 142 142 141 141 141 140 140 139 139 138 137 137 136 137 137 137 136 135 134 133 132 130 129 128 127 127 127 127 127 127 127 128 129 130 131 131 130 130 130 129 128
94 93 91 90 90 91 92 91 89 88 88 90 94 99 103 105 108 112 116 119 122 125 127 129 130 132 135 137 138 139 140 141 142 143 143 144 144 144 143 143 143 144 144 143 143 142 142 141 141 141 140 139 138 138 137 136 135 135 135 136 136 136 135 134 133 131 130 128 127 126 125 124 124 123 123 122 122 123 123 125 125 125 125 125 125 125
95 94 94 93 91 91 89 86 84 84 84 85 88 93 97 100 102 105 108 111 114 117 120 122 125 127 130 132 133 135 136 137 138 139 139 140 141 141 141 141 141 142 143 143 142 142 142 141 141 141 140 140 139 138 137 136 135 134 134 135 135 135 135 134 133 131 130 129 128 127 126 125 123 122 121 120 120 119 119 120 120 120 120 120 120 120
98 97 96 95 92 89 85 81 80 81 83 85 88 92 95 98 99 100 103 105 107 110 113 115 118 120 122 125 127 128 130 132 133 134 135 136 136 137 137 138 138 139 140 140 141 141 140 140 140 139 139 139 139 138 137 136 136 135 135 135 135 135 134 134 133 132 130 129 128 127 126 125 124 123 122 121 119 118 118 117 117 117 116 116 116 116
99 99 98 96 93 89 84 81 82 83 84 86 89 91 94 97 98 99 101 102 103 104 106 108 110 112 115 117 119 121 123 125 127 128 129 130 131 132 133 134 134 135 136 136 137 137 138 138 138 137 137 137 137 138 137 137 136 136 135 135 135 134 134 133 133 131 130 129 128 127 126 125 124 123 122 122 121 119 118 117 116 115 113 113 113 113
101 100 98 96 94 91 86 84 85 86 86 87 90 92 94 97 99 101 102 102 102 102 102 103 105 106 108 109 111 113 114 116 118 120 121 123 124 126 127 128 129 129 130 132 133 133 134 134 134 134 134 134 135 135 136 136 136 136 136 136 135 134 133 133 132 131 129 128 128 127 126 125 124 123 122 122 121 120 119 117 116 114 112 111 111 111
103 101 99 98 98 95 92 91 92 92 91 92 93 95 97 99 101 103 104 104 103 102 102 102 102 102 103 103 105 106 107 109 111 113 114 115 117 119 120 121 122 123 124 126 127 128 129 130 130 130 130 131 132 132 133 133 134 134 135 135 134 133 132 132 131 130 128 127 126 126 125 125 124 123 122 121 120 119 118 117 116 114 112 110 110 110
105 104 104 104 102 100 99 99 99 98 97 97 97 98 99 100 101 102 104 105 105 104 103 102 102 102 102 102 103 104 104 105 106 107 107 108 110 112 114 115 116 117 118 120 121 122 124 125 125 125 125 126 127 128 128 129 130 131 131 131 131 131 130 130 129 128 127 125 125 124 123 123 122 122 122 121 120 119 117 116 115 113 112 110 109 108
Wind_Direction
231 231 231 232 233 234 235 236 237 236 236 237 237 238 238 238 238 239 239 240 240 238 237 236 236 236 240 247 249 245 243 245 247 248 249 250 251 253 254 254 253 252 252 253 253 252 251 252 251 251 251 252 253 254 255 256 256 256 257 257 257 257 257 257 258 259 259 260 262 263 264 266 267 268 270 272 274 275 275 276 278 279 281 282 283 285
231 231 231 231 232 232 233 234 235 235 235 236 237 237 238 238 238 239 240 240 241 240 238 238 237 237 238 243 247 246 243 244 246 248 249 249 251 253 254 254 254 254 253 252 252 252 252 253 253 253 252 252 253 254 255 256 256 257 257 258 259 260 260 260 260 260 261 262 264 265 266 267 268 270 271 273 273 274 275 276 277 278 280 282 284 285
231 231 231 231 231 231 232 234 235 235 236 236 237 237 238 238 239 240 241 242 243 241 240 239 237 237 238 240 244 246 244 243 245 247 249 250 251 253 254 255 255 255 254 253 251 251 252 253 254 254 254 254 254 254 254 254 256 258 260 260 261 261 261 262 262 262 263 265 266 266 267 268 269 271 272 273 274 275 276 277 278 280 281 283 284 286
232 232 231 231 231 231 233 234 235 236 237 238 239 239 239 240 241 241 242 243 243 242 241 240 238 236 238 240 243 246 244 243 244 247 249 251 252 254 255 255 255 255 254 254 253 252 252 253 254 255 255 256 256 255 254 254 256 258 260 261 261 260 261 262 263 265 267 267 267 267 268 269 270 272 274 274 275 276 278 279 279 281 282 283 285 287
233 231 230 230 230 231 232 233 235 236 237 238 239 240 241 242 243 243 243 243 243 242 241 241 239 237 238 240 242 246 245 243 244 246 249 251 252 254 255 256 255 255 255 255 254 254 253 253 253 254 255 256 257 257 256 256 257 257 258 259 260 261 262 263 264 266 268 269 269 271 272 272 273 274 274 275 276 278 279 279 280 281 282 283 285 287
233 231 229 229 229 230 230 231 233 234 235 236 238 239 240 241 242 242 243 243 242 241 241 241 239 236 238 240 242 246 246 245 245 245 248 251 252 253 255 256 256 256 255 255 255 254 253 253 253 253 254 255 256 257 258 258 258 257 256 258 260 261 263 264 265 266 268 269 271 274 275 276 276 275 275 276 280 281 280 280 280 281 283 285 286 288
232 231 230 230 229 230 230 230 232 233 234 235 236 238 239 240 241 242 242 243 242 241 240 241 239 236 237 240 241 246 248 247 246 246 248 251 252 253 255 257 258 257 256 255 255 255 254 253 253 253 253 254 255 256 258 259 258 258 259 259 260 261 262 264 265 267 269 270 272 273 275 276 276 276 277 280 282 281 279 280 281 283 284 286 287 288
232 232 231 231 231 231 232 232 232 234 235 235 236 237 239 240 241 242 243 243 242 241 240 240 240 236 236 240 242 244 248 248 247 248 249 251 252 253 255 257 258 258 257 256 255 255 254 253 253 253 253 254 254 255 256 257 259 260 261 261 260 261 261 263 265 267 268 270 271 273 274 275 275 276 278 281 281 280 279 280 282 284 285 286 287 288
233 233 232 233 233 233 234 233 233 234 236 236 235 236 238 239 239 241 242 243 242 242 240 240 241 238 235 239 244 244 245 248 248 249 250 251 252 253 254 256 257 257 257 256 256 255 254 253 252 253 254 254 254 255 256 256 257 258 259 260 261 261 262 263 265 266 268 269 271 272 272 273 274 276 278 279 280 279 279 281 283 284 285 286 287 287
232 232 232 232 232 233 232 232 232 233 235 235 234 235 237 238 238 240 241 242 242 242 241 240 242 241 235 237 244 245 244 247 249 250 250 251 252 253 253 254 255 256 256 255 255 255 255 254 253 252 253 254 254 255 255 255 256 257 258 259 260 261 262 263 264 266 267 268 269 270 271 271 273 274 276 278 278 278 279 281 282 283 284 285 286 286
231 231 231 232 232 232 232 231 231 232 233 233 233 234 235 237 238 240 241 243 244 243 242 242 244 243 238 235 242 246 245 247 249 250 251 252 253 253 252 253 253 254 256 255 255 255 255 254 254 253 252 253 254 254 255 255 256 257 258 259 259 260 261 263 264 265 266 267 268 269 270 271 272 274 276 277 277 278 279 280 281 282 283 284 285 286
231 231 231 232 232 232 232 232 232 233 234 235 234 234 236 237 239 240 242 244 245 246 245 246 246 245 241 235 239 245 247 248 249 250 251 252 252 253 253 253 253 253 254 255 255 255 255 254 254 254 253 253 254 254 255 255 256 257 258 259 260 260 261 262 263 264 265 266 267 268 269 271 272 274 275 275 276 277 277 278 280 281 282 283 284 284
232 231 231 232 232 232 233 233 234 234 235 236 237 237 238 239 241 242 244 246 248 248 247 248 247 246 242 237 238 243 247 249 250 249 250 251 252 252 253 253 253 252 252 254 255 256 256 255 254 254 254 254 254 255 255 255 256 256 257 258 259 260 261 261 262 263 263 264 266 267 269 271 272 274 274 274 275 276 277 278 279 280 281 282 283 282
234 233 232 232 232 233 233 234 235 236 238 239 239 240 240 242 243 245 247 248 249 249 248 247 247 246 243 237 237 241 244 247 250 250 250 251 251 251 252 252 253 253 253 253 255 256 257 256 255 254 254 254 255 255 256 256 256 256 256 257 259 260 260 261 261 262 263 264 265 267 268 270 271 272 273 274 275 276 277 278 279 281 281 281 281 281
235 236 235 235 234 234 235 236 237 238 239 239 240 240 240 241 243 244 245 246 247 247 246 245 245 245 243 239 238 240 242 244 247 250 251 250 251 251 251 252 253 254 254 254 254 255 257 257 257 256 255 255 255 256 256 257 257 257 258 258 259 260 260 261 261 262 263 264 265 267 268 269 270 272 273 275 276 277 278 279 280 281 281 281 281 282
235 236 236 236 235 234 234 235 237 237 238 238 239 239 239 240 242 243 243 244 244 244 243 243 244 244 244 241 240 240 241 242 245 248 251 252 252 252 253 253 253 254 255 255 254 255 255 257 258 258 257 256 256 256 257 257 258 259 259 260 260 260 260 260 261 262 264 265 266 267 268 269 271 272 273 275 276 277 279 280 281 281 281 282 282 282
236 236 237 237 236 235 234 234 235 236 237 238 239 240 241 242 242 243 243 243 244 244 244 243 245 245 244 243 242 241 242 242 244 246 249 251 252 253 254 254 254 254 254 255 255 255 255 256 256 258 258 258 257 257 257 257 258 259 259 260 261 261 262 262 262 263 264 265 266 267 268 270 271 272 273 275 276 277 279 280 281 281 282 282 282 283
236 236 237 237 237 237 236 235 235 237 238 238 239 239 240 241 241 241 242 243 243 244 244 244 245 246 245 243 242 243 244 244 244 245 246 249 251 253 255 255 255 255 254 254 255 255 256 256 256 256 257 258 258 258 258 258 258 258 259 260 261 262 263 263 264 264 265 266 267 268 269 270 271 272 274 275 276 278 280 281 281 282 282 283 283 284
235 235 236 237 237 237 236 236 235 236 237 238 239 239 240 240 241 242 243 244 244 245 245 245 245 245 245 243 243 244 245 245 245 245 245 247 249 252 254 256 256 256 256 255 255 255 255 256 256 256 256 257 258 258 259 259 259 259 259 259 261 262 263 264 265 265 266 267 268 270 271 271 272 273 275 276 278 279 280 281 282 283 283 284 285 286
235 235 235 236 237 237 237 237 236 236 237 238 239 240 241 241 242 243 244 245 245 246 246 245 244 244 244 243 243 244 245 246 246 245 246 246 248 250 252 254 256 257 257 257 257 256 256 256 256 256 256 257 257 258 258 259 259 259 260 260 261 262 264 265 265 266 266 267 268 270 271 272 273 274 276 277 279 280 281 282 282 283 284 285 286 287
235 236 236 237 237 237 238 238 238 238 238 238 239 240 241 243 244 244 245 246 246 247 247 246 245 244 244 244 244 244 244 246 247 247 247 247 247 248 249 251 253 255 257 258 259 259 258 258 257 257 256 256 257 258 259 259 259 260 260 261 262 263 264 266 266 267 268 268 269 270 271 272 273 275 276 277 278 279 280 281 282 283 285 286 287 287
235 236 237 237 238 239 239 239 239 239 239 239 239 240 240 242 243 244 244 245 246 247 247 246 245 244 243 243 244 244 244 245 247 247 247 247 247 247 248 248 250 252 255 257 258 259 260 260 260 259 258 257 257 257 258 260 261 261 261 262 262 264 265 266 267 268 269 270 271 271 272 273 274 275 276 277 278 279 280 281 282 283 285 286 286 287
235 236 237 238 238 239 240 240 239 239 239 240 240 240 240 241 242 243 244 245 246 246 246 246 245 243 242 242 242 244 244 244 245 246 247 248 248 248 248 249 250 251 253 255 257 258 259 260 261 261 261 260 259 258 258 258 260 261 262 263 263 264 265 266 267 268 269 270 271 272 272 274 274 276 277 278 279 280 281 282 283 284 285 285 286 287
234 235 236 237 238 239 240 240 240 240 240 240 240 241 241 242 242 243 245 246 246 247 247 247 246 244 242 242 243 244 245 246 246 247 248 249 250 250 250 250 251 251 252 253 254 256 257 258 260 261 262 262 262 261 260 259 259 260 261 262 263 264 265 266 267 268 269 269 271 272 273 274 275 276 277 278 279 280 281 282 283 284 285 285 286 286
233 234 235 236 237 238 238 239 240 240 240 241 241 242 242 243 243 243 243 244 245 246 247 247 247 246 244 244 244 244 246 247 248 248 248 249 250 250 251 251 251 251 252 252 253 254 255 256 258 259 261 262 263 263 263 263 262 262 261 262 262 264 265 266 267 268 269 270 271 272 273 274 275 276 277 278 279 280 282 283 283 284 284 285 285 285
232 233 234 235 236 237 238 239 240 241 241 241 242 242 243 243 243 243 243 243 244 245 246 248 248 248 246 245 245 245 246 247 248 248 248 248 248 249 250 250 251 251 251 252 252 253 254 255 256 257 259 260 262 263 264 265 265 264 264 264 263 264 264 265 266 267 269 270 271 272 273 274 275 276 278 278 279 280 281 282 282 283 283 283 283 284
231 232 233 234 235 236 238 239 239 240 241 241 241 241 242 242 243 243 243 243 244 245 246 247 248 247 246 246 245 245 245 246 247 248 248 248 248 248 249 250 250 251 251 252 252 253 253 254 255 256 258 259 260 261 263 264 265 265 266 265 265 265 265 265 266 266 268 269 270 271 272 274 275 276 277 278 279 280 280 280 281 281 281 281 281 281
232 233 233 234 235 236 237 238 238 239 240 241 241 241 241 242 242 243 244 244 244 244 245 245 246 246 246 246 246 245 245 246 246 247 248 248 248 248 249 249 250 250 251 251 252 253 254 255 256 256 257 258 259 260 261 262 263 264 265 266 266 267 267 267 268 268 268 269 270 271 272 273 274 275 276 277 278 278 278 278 279 279 279 279 279 279
232 233 234 235 236 236 237 238 239 239 240 241 241 241 241 242 242 243 244 244 245 245 245 245 246 246 246 246 246 246 245 245 246 247 248 248 249 249 249 249 249 250 251 252 252 253 254 256 256 257 257 257 258 259 260 260 261 262 263 264 266 267 268 269 269 270 270 270 271 271 271 272 273 274 275 276 276 276 276 277 277 277 277 278 278 279
232 233 234 235 235 236 237 238 238 239 240 241 241 242 242 242 243 243 244 245 245 246 246 247 247 247 247 247 247 247 246 246 246 247 248 249 250 250 250 249 249 250 251 252 252 253 254 255 256 257 257 257 257 258 259 260 261 262 263 263 264 266 267 268 269 270 271 271 272 272 272 273 273 274 274 275 275 275 275 276 276 277 277 277 278 278
233 234 234 235 236 236 237 238 239 239 240 241 241 242 243 243 244 244 245 245 246 247 247 248 248 248 248 247 247 247 247 247 248 248 248 249 249 250 250 250 250 250 251 251 252 253 253 254 255 256 256 257 258 258 259 260 261 262 263 264 264 265 265 266 267 268 269 270 271 272 272 273 273 273 274 274 274 275 276 276 276 276 277 278 278 279
233 234 235 236 237 237 238 239 240 240 241 241 242 242 243 244 245 245 246 247 247 248 248 248 249 249 249 248 247 247 248 249 249 249 249 249 249 250 250 251 251 251 251 251 252 252 253 253 254 255 256 257 258 258 259 260 261 262 262 263 264 264 264 264 265 265 266 267 268 269 270 271 271 272 272 273 274 274 275 276 276 276 277 277 277 278
232 233 234 235 236 237 237 238 240 240 241 241 242 242 244 245 246 247 247 248 248 248 249 249 249 249 249 249 249 249 249 249 249 249 249 249 249 250 250 251 251 251 252 252 252 252 252 253 253 254 256 257 257 258 259 259 260 260 261 261 262 263 264 264 264 265 265 266 266 267 268 269 269 270 271 272 272 273 274 274 275 275 275 275 275 276
231 232 233 234 235 235 236 237 238 239 240 240 241 242 243 244 245 246 247 248 249 249 249 250 250 250 250 250 250 250 250 250 249 249 250 250 251 250 251 251 251 252 252 253 253 253 253 253 254 254 255 256 257 257 257 258 258 259 259 260 261 262 263 264 264 265 265 265 266 266 267 267 268 269 270 270 271 272 272 273 273 273 273 274 274 274
232 233 234 234 235 235 235 236 237 238 239 240 241 241 242 243 244 245 246 247 248 250 251 251 251 251 251 251 251 252 252 252 251 250 250 250 250 251 251 252 252 253 253 253 253 254 254 254 254 254 255 255 256 256 257 257 257 258 258 259 260 260 261 262 263 264 264 265 265 266 266 267 267 268 268 269 270 270 271 271 272 272 273 273 274 274
233 234 235 236 237 237 237 238 238 239 240 241 241 241 242 243 244 245 246 247 248 249 250 251 251 252 252 252 252 252 253 253 253 252 252 251 251 251 251 252 252 253 253 253 254 254 254 254 254 254 254 254 255 255 256 257 257 258 258 258 259 259 260 261 262 263 264 264 265 265 266 266 267 267 268 268 269 269 270 271 271 272 272 273 273 273
233 233 234 235 236 237 238 239 240 241 241 241 241 242 242 243 245 246 246 246 247 248 249 250 251 252 252 253 253 252 252 253 254 254 254 253 253 252 252 252 252 252 253 253 254 255 255 255 254 254 254 254 255 255 255 256 257 258 258 258 258 259 259 260 260 262 263 264 264 265 265 266 266 267 267 268 268 269 269 270 270 271 272 272 273 273
234 234 234 235 235 236 237 238 239 240 240 241 241 242 243 243 244 245 246 246 246 247 248 249 250 251 251 252 253 253 253 252 253 253 254 254 254 254 254 253 253 253 253 254 254 255 255 255 255 255 254 254 254 255 255 256 256 257 258 258 259 259 259 259 259 260 261 262 263 264 265 265 266 266 267 267 268 268 269 269 270 270 271 271 272 272
235 235 235 236 236 236 237 238 239 240 240 241 241 242 242 243 244 245 245 245 245 246 247 248 249 250 250 251 252 253 253 253 254 254 254 254 255 255 255 255 255 255 255 255 255 255 256 256 256 256 256 256 255 255 255 255 256 256 257 258 258 259 259 259 259 259 260 260 261 262 263 264 265 266 266 266 267 267 268 268 269 269 270 270 271 271
238 237 237 237 237 238 238 239 240 240 241 241 242 242 243 243 244 245 246 246 246 246 247 248 248 249 250 250 251 252 253 254 255 255 255 256 256 256 257 257 257 257 257 257 257 257 257 257 257 257 258 258 258 257 257 256 256 256 256 257 257 258 258 259 259 259 259 260 260 261 262 262 263 264 265 265 266 267 267 268 268 268 269 269 270 270
239 239 238 238 238 239 239 240 240 240 241 241 242 243 243 244 244 245 246 247 247 247 246 247 248 249 250 251 251 252 253 254 255 255 256 256 257 257 258 258 258 258 258 258 258 258 258 258 258 259 259 259 259 260 260 259 259 258 258 257 258 258 258 259 259 259 259 259 260 260 261 261 262 263 264 264 265 265 266 266 267 267 268 268 269 269
240 240 239 239 240 240 240 240 241 240 241 242 243 243 244 245 246 247 247 247 247 247 247 247 248 249 250 251 251 252 253 253 254 255 255 256 257 257 258 258 259 259 259 259 259 259 259 259 260 260 260 261 261 261 262 262 262 261 261 260 260 260 260 260 260 260 260 260 260 260 260 261 261 262 263 263 264 264 265 265 265 266 266 267 267 268
240 240 239 239 240 240 240 241 241 241 242 243 244 244 245 246 246 247 247 247 247 247 247 248 248 249 250 251 251 252 252 253 253 254 254 255 256 256 257 258 259 259 259 260 260 260 260 260 260 260 261 261 262 262 262 263 263 264 264 264 263 263 262 262 262 261 261 261 261 261 261 261 261 261 261 262 263 263 264 264 265 265 266 266 267 267
242 241 241 240 241 242 242 242 242 242 241 242 243 244 244 245 246 246 247 248 248 249 249 249 249 249 250 251 251 251 252 252 252 253 253 254 255 255 256 257 258 258 259 259 260 260 260 260 260 260 260 261 261 262 262 262 263 264 264 265 265 265 265 265 264 264 264 263 263 262 262 262 262 261 261 261 261 262 263 263 264 264 265 266 266 266
244 244 244 242 241 241 242 242 242 241 241 242 244 245 246 246 246 247 248 248 249 249 249 249 249 249 250 250 250 251 252 252 252 253 253 254 254 255 255 256 257 257 258 258 259 260 260 261 261 261 261 261 261 261 262 262 262 263 263 264 265 265 266 266 266 266 266 266 265 265 264 263 263 262 262 261 261 261 262 262 263 264 264 265 266 266
245 245 245 244 243 242 241 241 242 243 243 244 245 246 247 247 247 247 248 248 248 249 249 249 249 249 249 250 250 251 251 252 252 253 253 254 254 255 255 255 256 256 257 258 258 259 259 260 260 261 262 262 262 262 262 262 262 262 263 263 264 265 265 266 266 266 266 266 266 266 266 266 266 265 264 263 262 261 261 262 262 263 263 264 265 266
246 246 247 247 246 245 244 244 244 245 244 244 245 246 247 248 248 248 248 248 248 248 249 249 249 250 250 250 251 251 251 252 252 253 253 254 255 255 255 255 255 256 256 257 257 258 258 259 260 260 261 262 262 263 263 263 263 263 263 263 263 264 264 265 266 266 266 267 267 267 267 268 268 268 268 267 266 265 264 263 263 263 263 264 265 266
247 247 248 248 249 248 247 246 246 245 244 245 246 246 248 249 249 249 248 248 248 248 249 249 250 250 250 251 251 251 252 252 252 253 253 254 254 255 255 256 256 256 256 257 257 258 258 259 259 260 260 261 262 262 263 263 263 264 264 263 264 264 264 265 265 266 266 267 267 267 268 268 268 269 269 269 269 268 268 267 266 266 265 266 266 267
249 249 250 251 251 251 250 249 249 248 247 246 246 247 247 248 249 250 249 249 249 249 249 249 250 250 251 251 252 252 253 253 253 253 253 253 254 254 255 255 255 256 256 257 257 258 258 258 259 259 260 260 261 261 262 263 263 264 264 264 264 264 264 265 265 265 266 266 267 267 268 268 268 268 268 269 269 269 269 269 269 269 268 268 268 269
251 252 253 253 253 253 252 252 251 249 248 247 246 246 246 247 248 250 251 251 251 250 250 250 251 251 251 252 252 253 253 253 254 254 254 254 254 255 255 255 255 255 256 256 256 257 257 258 258 259 259 260 260 261 261 262 262 263 263 264 264 264 265 265 265 265 266 266 266 267 267 268 268 268 268 268 268 269 269 269 269 269 269 269 269 269
251 252 253 253 254 253 253 252 251 250 249 248 248 248 248 248 249 250 251 253 253 253 253 253 253 253 253 253 253 253 253 253 254 254 254 254 254 255 255 256 256 256 256 257 257 257 257 257 257 257 258 259 259 260 260 261 261 262 263 263 264 264 264 264 265 265 265 266 266 266 266 267 267 267 268 268 268 268 268 268 269 269 269 269 269 269
Height
10709 10713 10720 10739 10758 10770 10776 10777 10778 10783 10787 10790 10792 10795 10799 10801 10805 10808 10808 10809 10812 10817 10824 10828 10830 10834 10835 10832 10833 10839 10847 10850 10852 10852 10852 10852 10853 10854 10855 10857 10859 10861 10862 10865 10868 10868 10867 10868 10869 10871 10871 10871 10872 10873 10874 10874 10874 10874 10874 10874 10875 10876 10876 10875 10875 10875 10874 10874 10875 10875 10874 10874 10874 10873 10872 10873 10872 10872 10871 10871 10870 10869 10867 10866 10864 10862
10699 10701 10720 10747 10760 10763 10764 10763 10765 10771 10776 10780 10783 10786 10789 10793 10798 10800 10800 10803 10804 10810 10818 10821 10824 10829 10830 10830 10828 10833 10843 10847 10846 10846 10846 10847 10850 10850 10850 10850 10853 10855 10857 10861 10862 10862 10863 10863 10864 10866 10866 10866 10867 10869 10869 10869 10869 10870 10869 10869 10871 10872 10871 10871 10871 10870 10869 10870 10871 10870 10869 10869 10869 10868 10868 10868 10868 10867 10867 10867 10866 10864 10863 10861 10860 10858
10686 10699 10730 10751 10752 10752 10753 10753 10757 10763 10768 10772 10774 10777 10781 10787 10792 10793 10795 10797 10798 10803 10809 10812 10817 10823 10824 10826 10826 10829 10838 10841 10840 10840 10841 10843 10847 10846 10844 10845 10848 10850 10851 10854 10856 10857 10858 10859 10860 10860 10861 10861 10863 10864 10864 10864 10865 10865 10865 10866 10868 10868 10866 10866 10866 10865 10866 10867 10867 10865 10864 10864 10864 10864 10864 10864 10864 10863 10863 10863 10862 10860 10858 10857 10855 10854
10684 10712 10739 10740 10738 10743 10745 10748 10751 10756 10761 10765 10767 10771 10777 10782 10785 10787 10789 10789 10790 10793 10799 10802 10809 10817 10820 10823 10824 10824 10830 10834 10835 10837 10838 10840 10842 10839 10838 10840 10842 10842 10844 10848 10850 10852 10854 10855 10855 10855 10855 10856 10857 10858 10858 10859 10861 10861 10861 10861 10862 10863 10862 10861 10861 10861 10862 10862 10862 10861 10860 10860 10860 10860 10860 10860 10859 10859 10859 10858 10857 10856 10854 10853 10851 10850
10687 10715 10722 10717 10726 10735 10735 10738 10742 10746 10752 10757 10761 10765 10771 10776 10776 10777 10779 10779 10780 10782 10789 10793 10800 10813 10817 10818 10821 10818 10821 10829 10832 10834 10835 10835 10836 10834 10833 10834 10834 10836 10839 10842 10844 10847 10849 10850 10850 10850 10850 10851 10850 10851 10852 10854 10856 10857 10855 10855 10857 10858 10857 10857 10857 10858 10858 10857 10856 10856 10856 10856 10856 10856 10855 10855 10855 10856 10855 10853 10853 10852 10850 10849 10848 10846
10682 10696 10698 10705 10718 10719 10719 10725 10730 10736 10743 10747 10753 10757 10761 10764 10763 10764 10767 10769 10770 10772 10780 10784 10791 10807 10812 10812 10816 10813 10815 10825 10827 10830 10831 10829 10829 10829 10828 10827 10827 10830 10833 10835 10837 10840 10843 10844 10844 10845 10845 10845 10845 10844 10847 10849 10850 10850 10850 10851 10852 10853 10852 10852 10852 10854 10854 10853 10852 10852 10852 10851 10852 10851 10850 10851 10852 10852 10850 10848 10848 10847 10846 10845 10844 10842
10668 10678 10687 10697 10702 10702 10707 10716 10722 10729 10732 10736 10746 10750 10749 10752 10752 10754 10758 10758 10758 10763 10771 10774 10781 10799 10806 10807 10812 10810 10811 10819 10822 10825 10827 10824 10823 10823 10823 10821 10821 10824 10826 10828 10831 10833 10835 10837 10838 10838 10839 10839 10839 10839 10841 10843 10843 10843 10845 10847 10848 10848 10847 10846 10847 10849 10850 10849 10848 10848 10847 10846 10846 10845 10845 10847 10848 10847 10844 10843 10843 10843 10842 10841 10840 10838
10658 10670 10678 10684 10690 10696 10702 10713 10723 10725 10723 10730 10742 10741 10738 10742 10742 10743 10746 10744 10746 10753 10760 10766 10774 10789 10802 10805 10807 10807 10807 10813 10817 10819 10820 10818 10817 10817 10817 10816 10814 10816 10819 10822 10824 10825 10827 10829 10831 10832 10833 10834 10833 10833 10835 10836 10837 10838 10839 10841 10842 10842 10842 10842 10843 10844 10844 10844 10844 10844 10843 10842 10840 10840 10840 10843 10843 10841 10839 10839 10839 10838 10838 10837 10835 10833
10654 10661 10669 10678 10685 10692 10701 10712 10717 10714 10712 10722 10731 10727 10725 10728 10728 10731 10731 10729 10733 10739 10749 10762 10769 10780 10800 10805 10800 10801 10805 10808 10811 10813 10812 10812 10811 10810 10810 10809 10808 10809 10812 10814 10815 10816 10818 10821 10824 10826 10827 10828 10827 10827 10830 10831 10831 10832 10833 10834 10836 10836 10837 10837 10838 10839 10839 10839 10838 10838 10838 10836 10836 10835 10836 10837 10838 10836 10834 10834 10834 10833 10833 10832 10831 10828
10636 10645 10657 10664 10669 10677 10688 10695 10697 10698 10699 10706 10712 10711 10710 10711 10714 10717 10716 10717 10721 10726 10744 10764 10766 10773 10795 10802 10794 10795 10803 10805 10805 10806 10805 10805 10803 10802 10802 10801 10802 10803 10804 10806 10807 10807 10809 10813 10817 10820 10821 10821 10820 10821 10824 10825 10825 10826 10827 10828 10829 10829 10830 10832 10833 10833 10833 10833 10833 10832 10831 10830 10831 10831 10831 10832 10832 10830 10830 10829 10828 10828 10828 10827 10826 10824
10619 10632 10639 10642 10652 10663 10671 10675 10679 10682 10679 10682 10690 10694 10695 10697 10703 10705 10707 10711 10708 10719 10749 10765 10763 10766 10784 10797 10794 10792 10798 10800 10799 10799 10798 10797 10794 10792 10793 10793 10795 10796 10796 10797 10799 10799 10801 10805 10808 10812 10814 10813 10814 10816 10817 10818 10819 10820 10822 10822 10822 10823 10824 10826 10827 10828 10827 10827 10827 10825 10824 10824 10824 10826 10827 10827 10826 10825 10825 10824 10823 10823 10823 10822 10820 10819
10607 10619 10623 10632 10645 10654 10659 10663 10668 10668 10665 10670 10679 10687 10689 10691 10696 10698 10702 10704 10701 10725 10758 10763 10759 10759 10770 10793 10797 10790 10792 10793 10792 10792 10789 10786 10784 10783 10784 10785 10787 10788 10789 10789 10790 10792 10795 10798 10800 10804 10806 10807 10808 10810 10810 10812 10813 10815 10815 10816 10816 10816 10818 10820 10821 10822 10821 10821 10820 10819 10819 10818 10818 10820 10821 10821 10820 10819 10819 10818 10818 10818 10817 10816 10815 10813
10593 10606 10615 10624 10632 10639 10647 10651 10655 10656 10659 10665 10674 10683 10686 10687 10692 10693 10700 10703 10706 10734 10755 10753 10751 10745 10758 10788 10793 10787 10788 10784 10782 10782 10778 10776 10776 10776 10775 10775 10777 10780 10782 10783 10783 10785 10788 10790 10792 10796 10798 10800 10801 10802 10804 10806 10807 10808 10809 10809 10809 10809 10811 10813 10814 10815 10815 10815 10814 10813 10814 10813 10813 10814 10814 10813 10813 10812 10813 10812 10812 10812 10812 10810 10809 10807
10586 10596 10603 10611 10618 10629 10637 10641 10646 10653 10660 10667 10675 10683 10685 10686 10688 10692 10701 10702 10708 10730 10740 10742 10739 10726 10746 10781 10785 10783 10783 10775 10773 10771 10768 10768 10766 10765 10764 10766 10770 10772 10774 10777 10778 10779 10780 10781 10784 10788 10791 10793 10794 10795 10797 10799 10800 10801 10801 10802 10803 10802 10803 10806 10807 10807 10808 10808 10808 10808 10808 10807 10807 10807 10806 10806 10806 10805 10806 10806 10806 10806 10806 10804 10802 10800
10577 10584 10593 10605 10616 10628 10635 10640 10648 10655 10658 10660 10666 10670 10668 10673 10679 10685 10692 10690 10697 10713 10719 10724 10716 10708 10741 10774 10774 10774 10773 10768 10767 10761 10757 10757 10754 10755 10758 10760 10763 10763 10766 10769 10772 10773 10772 10773 10776 10779 10783 10785 10787 10788 10790 10791 10792 10793 10794 10794 10795 10794 10794 10797 10799 10800 10800 10801 10802 10802 10802 10801 10801 10801 10801 10800 10799 10798 10799 10800 10800 10800 10798 10797 10795 10794
10565 10571 10584 10595 10605 10619 10627 10633 10638 10638 10637 10642 10650 10647 10649 10666 10673 10670 10672 10675 10682 10689 10695 10705 10701 10706 10743 10762 10759 10763 10763 10762 10762 10754 10750 10747 10744 10748 10751 10753 10755 10756 10758 10760 10764 10766 10765 10765 10767 10770 10774 10777 10779 10781 10782 10783 10784 10784 10785 10786 10786 10784 10784 10788 10791 10792 10793 10794 10794 10795 10795 10794 10795 10795 10795 10794 10792 10792 10793 10793 10793 10792 10790 10789 10787 10787
10557 10563 10573 10581 10591 10603 10612 10617 10619 10619 10623 10631 10635 10636 10650 10667 10660 10651 10658 10666 10669 10669 10682 10698 10700 10712 10738 10747 10750 10756 10754 10756 10755 10749 10745 10738 10735 10740 10742 10745 10746 10747 10751 10752 10754 10756 10755 10757 10760 10761 10764 10767 10770 10772 10772 10773 10775 10776 10777 10776 10775 10774 10774 10778 10783 10785 10786 10785 10786 10787 10788 10788 10788 10789 10788 10788 10786 10786 10787 10787 10786 10784 10782 10781 10780 10779
10548 10555 10563 10570 10579 10589 10597 10603 10607 10610 10615 10618 10623 10634 10647 10644 10631 10634 10646 10651 10652 10655 10673 10693 10700 10710 10725 10737 10746 10746 10743 10747 10743 10739 10738 10732 10731 10733 10734 10736 10735 10737 10742 10743 10744 10745 10745 10749 10751 10753 10756 10758 10760 10761 10762 10764 10765 10766 10766 10766 10766 10766 10766 10769 10773 10776 10777 10777 10778 10779 10780 10781 10781 10781 10781 10781 10781 10781 10781 10779 10778 10777 10775 10773 10772 10772
10533 10540 10547 10554 10562 10570 10578 10585 10590 10597 10602 10606 10616 10627 10624 10614 10617 10631 10636 10638 10645 10651 10667 10688 10697 10700 10712 10730 10739 10733 10731 10732 10726 10728 10730 10729 10729 10728 10726 10726 10725 10727 10729 10730 10733 10734 10736 10740 10741 10744 10747 10749 10750 10751 10751 10752 10754 10755 10755 10758 10759 10758 10758 10761 10765 10767 10768 10770 10770 10770 10772 10773 10773 10773 10773 10774 10774 10774 10774 10771 10770 10769 10767 10765 10765 10764
10520 10525 10531 10539 10546 10554 10560 10564 10573 10587 10595 10599 10605 10608 10604 10604 10616 10626 10629 10632 10638 10643 10658 10677 10684 10687 10704 10724 10725 10719 10718 10714 10712 10720 10722 10722 10725 10722 10720 10719 10715 10716 10716 10718 10721 10723 10726 10729 10730 10733 10736 10739 10741 10740 10740 10741 10743 10745 10746 10749 10751 10750 10751 10754 10756 10758 10760 10762 10763 10763 10763 10763 10764 10765 10765 10766 10766 10766 10765 10763 10762 10761 10759 10758 10757 10756
10508 10512 10520 10528 10533 10538 10544 10553 10569 10584 10589 10589 10592 10596 10599 10604 10612 10619 10623 10625 10626 10634 10648 10661 10670 10681 10700 10712 10708 10704 10707 10703 10703 10709 10710 10712 10715 10713 10712 10712 10708 10707 10707 10708 10709 10709 10712 10715 10717 10721 10725 10729 10731 10730 10731 10731 10733 10737 10738 10740 10743 10743 10744 10745 10746 10749 10751 10753 10755 10755 10755 10755 10756 10758 10758 10758 10758 10758 10757 10755 10754 10753 10752 10751 10749 10747
10498 10504 10513 10518 10520 10526 10536 10550 10563 10569 10570 10574 10579 10584 10591 10595 10598 10602 10607 10611 10615 10622 10633 10643 10653 10671 10688 10695 10692 10690 10694 10693 10692 10693 10695 10699 10703 10702 10701 10702 10702 10703 10702 10700 10699 10698 10698 10700 10703 10707 10711 10716 10720 10722 10723 10723 10724 10727 10730 10733 10735 10736 10736 10737 10738 10740 10742 10744 10744 10745 10746 10747 10748 10749 10749 10750 10750 10750 10749 10747 10746 10745 10745 10744 10741 10739
10492 10496 10501 10503 10508 10515 10524 10537 10546 10550 10556 10563 10565 10569 10576 10580 10585 10589 10595 10604 10607 10608 10616 10623 10629 10653 10675 10678 10677 10676 10676 10678 10680 10681 10684 10687 10690 10692 10691 10693 10697 10699 10697 10694 10691 10689 10687 10687 10689 10692 10696 10701 10706 10711 10714 10715 10716 10717 10720 10724 10726 10727 10728 10729 10731 10732 10733 10734 10734 10735 10737 10738 10739 10740 10740 10741 10741 10740 10739 10738 10737 10737 10736 10735 10732 10731
10475 10479 10483 10489 10496 10502 10509 10520 10529 10535 10542 10546 10549 10558 10565 10570 10580 10586 10588 10594 10593 10591 10600 10601 10606 10639 10666 10665 10664 10667 10664 10666 10671 10675 10679 10679 10680 10681 10681 10685 10690 10691 10690 10687 10683 10680 10677 10677 10679 10681 10683 10687 10691 10696 10700 10704 10707 10709 10712 10715 10717 10718 10719 10720 10722 10722 10723 10725 10726 10727 10729 10729 10731 10731 10732 10732 10731 10731 10730 10729 10728 10727 10727 10725 10723 10721
10463 10465 10469 10475 10479 10483 10490 10500 10510 10519 10528 10535 10544 10552 10556 10559 10566 10570 10571 10575 10574 10575 10584 10584 10592 10629 10653 10650 10652 10658 10656 10658 10663 10667 10670 10669 10666 10667 10670 10676 10680 10680 10678 10675 10672 10670 10668 10669 10671 10673 10674 10676 10679 10683 10686 10690 10694 10699 10703 10706 10709 10710 10710 10712 10713 10713 10714 10716 10717 10719 10719 10720 10722 10722 10723 10724 10723 10722 10720 10719 10719 10717 10716 10715 10713 10712
10447 10447 10451 10457 10461 10467 10478 10491 10503 10514 10521 10527 10534 10539 10542 10543 10544 10549 10556 10559 10559 10565 10574 10575 10586 10614 10631 10632 10640 10648 10648 10650 10651 10650 10653 10653 10652 10655 10660 10665 10668 10666 10662 10660 10660 10661 10660 10660 10663 10666 10668 10670 10671 10673 10674 10677 10681 10685 10690 10694 10697 10700 10701 10703 10705 10705 10706 10708 10709 10710 10710 10711 10712 10713 10714 10714 10714 10713 10711 10710 10709 10707 10706 10704 10703 10701
10425 10427 10435 10443 10448 10460 10474 10485 10494 10501 10502 10507 10516 10522 10525 10525 10526 10531 10536 10540 10547 10556 10561 10566 10576 10591 10605 10615 10626 10633 10635 10635 10633 10632 10634 10636 10638 10644 10649 10653 10654 10652 10647 10646 10648 10650 10650 10652 10656 10660 10662 10663 10665 10665 10665 10666 10669 10673 10676 10679 10682 10686 10689 10692 10695 10697 10699 10700 10701 10701 10701 10702 10704 10704 10705 10705 10704 10703 10702 10700 10699 10697 10695 10694 10692 10691
10412 10416 10426 10434 10441 10454 10464 10469 10474 10479 10482 10486 10495 10501 10504 10507 10508 10510 10515 10525 10536 10540 10544 10556 10562 10567 10586 10603 10608 10613 10619 10620 10617 10615 10617 10621 10626 10632 10637 10639 10640 10637 10633 10633 10638 10640 10640 10642 10648 10653 10654 10655 10656 10656 10656 10657 10659 10661 10663 10665 10668 10672 10676 10679 10683 10687 10689 10691 10692 10691 10691 10693 10694 10695 10696 10695 10694 10693 10691 10689 10688 10687 10685 10683 10682 10680
10402 10408 10420 10428 10435 10446 10453 10454 10459 10465 10469 10471 10476 10481 10487 10492 10493 10496 10503 10513 10520 10523 10530 10542 10546 10555 10578 10591 10590 10594 10600 10602 10603 10602 10604 10609 10614 10618 10622 10625 10625 10622 10620 10622 10628 10633 10634 10634 10636 10641 10644 10645 10645 10644 10644 10645 10647 10650 10652 10655 10658 10662 10665 10668 10671 10673 10676 10678 10679 10679 10680 10683 10684 10686 10686 10684 10682 10680 10678 10678 10676 10675 10674 10672 10670 10669
10394 10400 10413 10418 10422 10432 10438 10440 10444 10451 10455 10457 10461 10466 10472 10478 10481 10485 10491 10499 10504 10509 10519 10530 10536 10549 10569 10575 10573 10575 10576 10582 10593 10596 10595 10599 10601 10602 10605 10609 10610 10609 10609 10613 10619 10625 10628 10625 10623 10625 10628 10631 10632 10632 10633 10635 10637 10641 10644 10647 10651 10654 10658 10659 10660 10661 10662 10662 10662 10663 10667 10670 10672 10674 10673 10670 10668 10667 10666 10665 10664 10663 10662 10660 10659 10657
10386 10394 10405 10409 10410 10419 10426 10428 10431 10438 10442 10445 10449 10452 10456 10461 10466 10471 10480 10488 10494 10500 10511 10519 10522 10535 10554 10559 10554 10551 10554 10568 10584 10589 10586 10585 10584 10585 10588 10591 10594 10596 10598 10603 10609 10614 10616 10614 10612 10611 10613 10615 10617 10620 10625 10629 10631 10633 10636 10638 10641 10645 10648 10649 10650 10649 10649 10649 10649 10650 10652 10654 10657 10659 10658 10656 10654 10654 10654 10652 10650 10650 10649 10648 10647 10646
10378 10386 10395 10398 10397 10407 10420 10422 10422 10428 10431 10431 10434 10437 10441 10447 10456 10465 10475 10481 10485 10491 10499 10502 10505 10522 10539 10536 10529 10533 10545 10559 10570 10572 10570 10568 10568 10569 10572 10575 10579 10582 10585 10591 10597 10601 10602 10602 10601 10600 10600 10601 10604 10610 10617 10621 10623 10624 10625 10626 10628 10631 10633 10634 10636 10637 10638 10638 10638 10638 10639 10640 10643 10646 10645 10644 10642 10641 10641 10639 10637 10637 10636 10635 10635 10634
10364 10370 10378 10382 10382 10395 10410 10410 10408 10412 10408 10404 10416 10429 10436 10443 10451 10458 10464 10468 10472 10476 10480 10484 10495 10510 10515 10508 10509 10525 10538 10544 10547 10549 10551 10554 10555 10555 10557 10560 10562 10565 10570 10576 10582 10586 10587 10588 10589 10589 10589 10589 10593 10600 10604 10606 10608 10610 10611 10613 10614 10616 10617 10618 10620 10622 10623 10625 10626 10626 10627 10628 10632 10635 10634 10633 10631 10631 10630 10628 10625 10624 10624 10623 10622 10622
10348 10353 10360 10363 10365 10377 10389 10389 10386 10382 10375 10384 10412 10430 10432 10436 10442 10444 10448 10453 10456 10456 10461 10469 10481 10491 10493 10492 10500 10513 10520 10521 10524 10530 10538 10540 10538 10536 10540 10545 10547 10551 10557 10562 10565 10569 10572 10575 10579 10581 10581 10579 10579 10583 10586 10588 10591 10593 10596 10599 10602 10603 10604 10604 10605 10606 10607 10609 10611 10612 10615 10617 10620 10622 10622 10621 10620 10620 10619 10616 10613 10611 10610 10611 10611 10610
10342 10346 10350 10352 10355 10363 10372 10371 10363 10356 10362 10386 10412 10421 10420 10423 10427 10427 10431 10439 10443 10443 10448 10457 10465 10473 10478 10480 10485 10493 10499 10500 10501 10510 10521 10523 10519 10518 10524 10531 10534 10536 10541 10545 10547 10551 10557 10563 10567 10568 10568 10567 10565 10565 10567 10571 10575 10578 10580 10584 10588 10592 10593 10591 10591 10591 10592 10594 10596 10598 10600 10603 10606 10607 10608 10607 10606 10606 10606 10603 10600 10597 10596 10597 10598 10598
10333 10338 10342 10346 10349 10354 10360 10359 10353 10354 10370 10389 10400 10407 10411 10413 10414 10415 10420 10431 10437 10435 10436 10439 10445 10453 10457 10462 10470 10478 10481 10477 10474 10485 10499 10502 10501 10504 10509 10514 10516 10517 10522 10527 10530 10535 10542 10547 10551 10552 10551 10551 10551 10552 10552 10555 10558 10562 10564 10568 10573 10577 10580 10580 10578 10577 10578 10580 10581 10582 10585 10588 10590 10592 10593 10593 10593 10592 10591 10589 10587 10584 10582 10583 10584 10584
10318 10323 10327 10331 10336 10342 10348 10351 10349 10351 10363 10376 10385 10397 10405 10405 10405 10404 10405 10415 10424 10422 10419 10422 10429 10437 10441 10445 10452 10460 10461 10453 10452 10468 10480 10477 10477 10488 10493 10493 10495 10499 10506 10513 10517 10520 10524 10527 10532 10535 10535 10535 10537 10538 10540 10541 10543 10545 10547 10551 10556 10560 10564 10566 10566 10565 10566 10566 10566 10567 10569 10572 10575 10576 10577 10578 10579 10578 10576 10575 10574 10571 10569 10570 10571 10569
10307 10311 10315 10318 10322 10328 10330 10332 10333 10334 10345 10366 10381 10391 10395 10393 10390 10387 10383 10392 10407 10410 10407 10410 10416 10422 10426 10427 10430 10435 10436 10432 10439 10458 10460 10448 10454 10469 10470 10468 10475 10484 10492 10500 10504 10505 10505 10506 10510 10515 10518 10519 10520 10521 10525 10527 10529 10530 10530 10532 10536 10541 10545 10549 10551 10552 10554 10554 10553 10553 10554 10555 10558 10560 10562 10563 10564 10564 10562 10561 10560 10558 10556 10556 10557 10555
10294 10299 10304 10305 10308 10314 10316 10318 10322 10326 10341 10363 10374 10377 10377 10374 10372 10368 10360 10370 10394 10404 10400 10397 10398 10400 10406 10411 10414 10416 10412 10413 10429 10444 10437 10428 10439 10452 10448 10448 10461 10470 10475 10481 10486 10488 10489 10489 10490 10492 10495 10499 10501 10503 10508 10511 10514 10516 10516 10515 10517 10521 10525 10529 10532 10536 10538 10539 10540 10541 10540 10541 10543 10544 10546 10548 10549 10549 10548 10547 10545 10544 10542 10541 10542 10541
10283 10287 10291 10292 10298 10306 10308 10310 10316 10323 10339 10356 10360 10360 10361 10358 10356 10349 10342 10362 10394 10399 10385 10378 10378 10382 10389 10395 10398 10399 10397 10403 10418 10425 10417 10415 10427 10433 10432 10436 10446 10452 10455 10460 10464 10468 10470 10470 10471 10472 10475 10477 10480 10483 10487 10492 10496 10499 10499 10500 10500 10503 10506 10510 10513 10517 10520 10522 10524 10526 10527 10528 10529 10530 10531 10532 10534 10534 10533 10532 10530 10529 10527 10527 10527 10526
10270 10273 10277 10282 10289 10294 10296 10299 10306 10316 10332 10344 10345 10345 10345 10340 10336 10334 10342 10366 10383 10372 10359 10360 10364 10369 10376 10379 10380 10384 10388 10395 10404 10406 10401 10403 10410 10415 10417 10421 10425 10429 10434 10438 10442 10446 10448 10449 10451 10454 10457 10459 10461 10463 10465 10470 10475 10478 10480 10483 10484 10485 10488 10492 10495 10499 10502 10505 10508 10509 10511 10513 10514 10515 10516 10516 10518 10520 10519 10517 10515 10513 10513 10513 10512 10511
10260 10263 10267 10272 10276 10281 10285 10288 10292 10305 10326 10334 10331 10330 10329 10325 10326 10335 10343 10350 10346 10337 10341 10351 10354 10355 10360 10363 10367 10372 10377 10381 10386 10387 10386 10388 10394 10399 10401 10403 10406 10409 10412 10416 10421 10426 10430 10431 10432 10435 10438 10440 10443 10445 10447 10450 10453 10456 10458 10461 10464 10467 10470 10473 10477 10481 10484 10487 10490 10492 10495 10497 10499 10500 10501 10500 10501 10503 10504 10502 10500 10499 10499 10498 10498 10498
10249 10250 10253 10260 10265 10270 10273 10275 10283 10305 10326 10324 10314 10315 10317 10315 10318 10323 10320 10315 10316 10321 10329 10338 10342 10343 10344 10349 10354 10356 10359 10362 10366 10368 10370 10372 10378 10384 10384 10385 10388 10390 10393 10397 10401 10405 10411 10414 10416 10417 10420 10422 10424 10426 10429 10433 10435 10437 10438 10439 10442 10445 10449 10453 10457 10461 10466 10470 10472 10474 10477 10479 10481 10484 10486 10486 10485 10485 10486 10486 10484 10484 10483 10482 10483 10483
10234 10238 10245 10255 10261 10261 10263 10271 10284 10300 10308 10301 10294 10297 10301 10300 10301 10301 10298 10299 10305 10310 10315 10323 10330 10331 10329 10333 10336 10336 10340 10344 10347 10351 10354 10355 10360 10366 10370 10370 10370 10373 10376 10379 10381 10385 10390 10394 10397 10399 10401 10404 10406 10409 10412 10416 10419 10421 10420 10420 10420 10422 10426 10430 10434 10439 10445 10449 10452 10455 10457 10460 10463 10465 10467 10470 10471 10470 10470 10468 10468 10468 10468 10466 10466 10467
10227 10234 10239 10245 10248 10249 10253 10264 10274 10280 10285 10287 10286 10285 10285 10287 10289 10288 10288 10291 10292 10293 10299 10306 10311 10312 10313 10315 10317 10320 10324 10327 10330 10334 10338 10339 10342 10349 10354 10356 10356 10357 10359 10362 10364 10367 10370 10374 10377 10379 10382 10385 10388 10391 10395 10398 10402 10405 10405 10403 10402 10403 10406 10409 10413 10418 10423 10427 10430 10433 10436 10439 10443 10445 10447 10450 10453 10454 10454 10453 10452 10453 10452 10451 10450 10450
10219 10223 10224 10228 10233 10236 10244 10256 10265 10270 10276 10280 10278 10272 10271 10273 10274 10273 10273 10275 10275 10277 10282 10286 10289 10293 10296 10298 10302 10306 10308 10310 10314 10318 10321 10324 10327 10330 10335 10341 10342 10342 10342 10344 10347 10350 10353 10357 10360 10362 10365 10367 10368 10372 10376 10380 10383 10387 10389 10388 10387 10387 10389 10391 10395 10399 10403 10406 10409 10411 10414 10417 10420 10423 10426 10429 10432 10435 10437 10436 10436 10437 10437 10437 10436 10435
10207 10210 10212 10216 10221 10228 10240 10254 10260 10261 10263 10264 10262 10260 10259 10258 10258 10259 10260 10260 10262 10264 10266 10268 10273 10277 10279 10282 10287 10290 10293 10296 10299 10302 10305 10309 10312 10314 10317 10322 10325 10327 10327 10328 10331 10334 10337 10341 10345 10348 10350 10352 10352 10353 10357 10361 10364 10366 10369 10371 10371 10372 10373 10375 10378 10382 10386 10388 10390 10393 10395 10398 10400 10402 10404 10407 10410 10414 10416 10417 10419 10421 10423 10423 10421 10420
10197 10199 10201 10206 10212 10220 10234 10244 10245 10245 10248 10250 10249 10249 10247 10244 10244 10245 10245 10245 10247 10250 10252 10255 10258 10260 10263 10267 10270 10273 10278 10281 10283 10287 10291 10295 10297 10298 10300 10302 10307 10310 10312 10313 10316 10318 10321 10325 10329 10333 10336 10338 10339 10338 10340 10343 10345 10345 10347 10351 10353 10354 10357 10359 10360 10365 10369 10371 10373 10375 10378 10380 10383 10386 10386 10387 10389 10392 10395 10397 10399 10402 10406 10407 10405 10404
10186 10188 10195 10201 10205 10212 10223 10230 10230 10233 10236 10236 10234 10234 10233 10230 10228 10227 10228 10230 10233 10235 10238 10240 10243 10246 10250 10253 10256 10261 10265 10266 10268 10271 10276 10279 10280 10281 10282 10285 10289 10293 10296 10297 10299 10302 10306 10309 10312 10316 10320 10324 10324 10324 10325 10327 10327 10327 10327 10330 10332 10335 10339 10342 10343 10347 10352 10355 10356 10358 10360 10362 10365 10368 10370 10371 10372 10373 10376 10378 10380 10383 10388 10389 10387 10387
10177 10183 10190 10192 10193 10201 10210 10213 10213 10215 10216 10216 10216 10215 10214 10214 10214 10213 10213 10215 10218 10221 10224 10227 10231 10235 10239 10242 10245 10249 10250 10251 10252 10255 10259 10264 10265 10265 10266 10269 10272 10276 10279 10280 10282 10286 10289 10292 10295 10299 10303 10307 10307 10308 10309 10311 10311 10309 10309 10311 10314 10317 10321 10324 10327 10330 10334 10338 10340 10342 10344 10345 10347 10348 10351 10353 10355 10357 10359 10361 10362 10365 10370 10371 10370 10369
10170 10175 10177 10177 10179 10186 10190 10191 10193 10196 10197 10199 10201 10201 10201 10203 10204 10203 10202 10203 10205 10208 10213 10217 10222 10225 10228 10230 10231 10233 10235 10237 10237 10239 10245 10249 10250 10251 10253 10254 10255 10259 10261 10263 10265 10269 10271 10273 10277 10282 10286 10289 10290 10290 10292 10295 10295 10293 10292 10294 10296 10299 10302 10306 10309 10313 10317 10320 10323 10326 10328 10329 10330 10331 10332 10334 10337 10339 10342 10345 10346 10348 10351 10353 10354 10353